Dewpoint
10 10 10 10 10 10 10 9 9 9 8 7 7 5 1 -3 -4 -4 -4 -6 -6 -7 -7 -7 -7 -8 -8 -8 -7 -7 -5 -4 -3 -1 -0 1 1 2 3 4 5 5 6
11 11 11 10 9 9 9 9 8 8 7 6 1 -4 -5 -6 -7 -8 -8 -7 -9 -10 -10 -10 -10 -9 -7 -6 -6 -9 -12 -15 -16 -17 -15 -13 -10 -8 -7 -7 -6 -0 3
10 9 9 8 8 9 9 9 8 7 4 -4 -4 -8 -12 -13 -13 -11 -11 -5 -8 -10 -10 -9 -7 -7 -9 -12 -16 -18 -22 -23 -24 -25 -26 -25 -26 -25 -20 -18 -17 -16 -14
9 9 9 9 9 9 8 8 6 -2 -3 -5 -10 -13 -14 -14 -13 -11 -10 -8 -9 -7 -10 -11 -12 -14 -14 -15 -19 -23 -25 -26 -27 -28 -28 -28 -27 -27 -27 -26 -26 -25 -23
9 9 9 10 9 9 9 5 -3 -2 -4 -7 -12 -14 -14 -15 -13 -12 -7 -11 -12 -11 -11 -15 -20 -19 -20 -22 -25 -26 -26 -26 -26 -26 -26 -26 -25 -26 -23 -19 -15 -3 -1
10 10 10 10 9 9 7 -3 -2 -2 -4 -7 -12 -14 -15 -18 -15 -13 -10 -11 -11 -14 -16 -19 -21 -23 -25 -25 -24 -25 -25 -26 -26 -26 -26 -25 -19 -15 -4 0 2 2 3
11 11 11 10 9 8 -3 -3 -2 -3 -4 -8 -12 -14 -11 -14 -16 -12 -12 -10 -9 -13 -16 -17 -21 -23 -23 -24 -24 -25 -25 -26 -26 -26 -26 -24 -16 -5 1 1 1 2 2
11 11 11 10 9 -1 -3 -1 -1 -3 -4 -8 -15 -12 -9 -10 -9 -12 -8 -13 -16 -14 -13 -17 -21 -22 -23 -23 -23 -25 -25 -26 -27 -27 -26 -21 -17 -2 -0 1 1 1 1
11 11 10 9 4 -3 -2 -1 -1 -3 -6 -10 -16 -18 -10 -10 -11 -13 -14 -12 -16 -12 -15 -17 -18 -19 -20 -22 -22 -22 -23 -24 -25 -26 -21 -7 -2 -1 -1 -0 0 0 1
11 11 10 6 -2 -2 -1 -1 -1 -3 -7 -14 -16 -18 -19 -19 -12 -13 -13 -12 -12 -14 -13 -13 -15 -18 -19 -19 -18 -17 -16 -18 -22 -13 -4 -3 -2 -2 -1 -1 -1 -1 -1
11 10 7 1 -2 -2 -1 -1 -1 -4 -9 -16 -19 -19 -19 -16 -13 -11 -10 -13 -14 -13 -13 -12 -12 -12 -14 -13 -13 -13 -10 -8 -6 -5 -4 -4 -3 -3 -3 -2 -2 -2 -1
10 6 1 -1 -2 -1 -1 -1 -3 -7 -13 -17 -19 -19 -20 -17 -14 -12 -12 -13 -13 -14 -13 -14 -13 -14 -12 -12 -12 -12 -10 -8 -7 -6 -5 -4 -4 -3 -3 -3 -3 -3 -2
9 4 -1 -3 -2 -1 -1 -2 -6 -12 -16 -18 -19 -19 -20 -19 -16 -15 -12 -12 -11 -14 -13 -13 -13 -13 -13 -13 -12 -11 -11 -8 -7 -7 -6 -5 -5 -5 -5 -4 -4 -4 -3
4 4 -2 -3 -2 -2 -2 -5 -10 -15 -17 -18 -18 -19 -20 -20 -17 -15 -12 -11 -10 -11 -12 -13 -13 -13 -13 -13 -12 -10 -10 -9 -9 -8 -7 -6 -6 -6 -6 -6 -5 -5 -5
1 -3 -2 -2 -2 -2 -5 -9 -14 -16 -17 -17 -18 -19 -18 -18 -17 -15 -14 -12 -10 -9 -10 -12 -13 -13 -13 -12 -11 -10 -10 -10 -9 -8 -7 -7 -7 -7 -7 -6 -6 -5 -5
-0 -3 -2 -2 -3 -5 -8 -13 -16 -16 -16 -17 -17 -18 -18 -18 -17 -16 -14 -11 -11 -10 -10 -11 -11 -12 -11 -10 -10 -9 -10 -9 -9 -9 -8 -8 -8 -8 -7 -6 -6 -6 -5
-3 -3 -3 -3 -5 -8 -12 -15 -15 -15 -16 -16 -17 -17 -18 -18 -16 -14 -13 -12 -12 -11 -11 -11 -10 -9 -9 -9 -9 -10 -9 -10 -9 -9 -10 -9 -8 -7 -7 -6 -6 -6 -6
-3 -3 -4 -5 -8 -11 -14 -15 -15 -15 -15 -16 -17 -17 -17 -14 -14 -14 -13 -11 -11 -11 -9 -9 -9 -9 -9 -9 -9 -8 -8 -8 -11 -11 -10 -9 -8 -8 -7 -6 -6 -6 -6
-3 -4 -5 -7 -11 -14 -14 -14 -14 -14 -16 -16 -16 -15 -15 -14 -13 -12 -11 -10 -10 -9 -9 -9 -9 -9 -9 -9 -8 -7 -10 -10 -11 -11 -10 -9 -8 -8 -7 -7 -7 -7 -7
-4 -5 -7 -10 -13 -14 -13 -13 -14 -15 -16 -16 -14 -14 -13 -13 -12 -11 -11 -9 -9 -9 -9 -8 -10 -9 -8 -7 -8 -10 -11 -11 -10 -10 -10 -10 -8 -8 -8 -8 -7 -7 -7
-5 -7 -9 -13 -14 -13 -13 -14 -15 -18 -20 -18 -16 -14 -12 -12 -12 -9 -8 -8 -8 -9 -9 -10 -8 -7 -7 -9 -10 -11 -10 -9 -11 -9 -9 -12 -9 -11 -11 -10 -10 -8 -7
-7 -9 -12 -14 -13 -13 -13 -14 -16 -21 -24 -22 -15 -15 -13 -12 -11 -10 -8 -8 -9 -8 -8 -8 -8 -8 -8 -10 -10 -10 -10 -9 -8 -10 -9 -11 -11 -11 -10 -11 -9 -7 -7
-8 -12 -14 -13 -13 -13 -14 -16 -21 -25 -26 -18 -15 -12 -11 -10 -10 -9 -9 -9 -9 -9 -8 -9 -8 -9 -10 -10 -11 -10 -8 -9 -9 -10 -9 -10 -11 -11 -11 -10 -9 -8 -8
-12 -14 -13 -13 -13 -13 -15 -22 -25 -26 -24 -17 -12 -10 -10 -10 -10 -9 -9 -9 -10 -10 -9 -10 -10 -10 -11 -10 -8 -8 -9 -10 -11 -10 -9 -9 -10 -11 -9 -10 -11 -11 -10
-14 -14 -13 -13 -13 -17 -21 -25 -26 -26 -21 -14 -11 -10 -10 -9 -10 -9 -8 -9 -9 -10 -11 -10 -10 -9 -8 -8 -9 -9 -11 -10 -10 -10 -10 -10 -10 -10 -10 -11 -11 -10 -9
-14 -14 -14 -13 -15 -21 -24 -25 -26 -26 -18 -11 -11 -10 -10 -10 -9 -9 -8 -9 -10 -10 -11 -11 -10 -10 -10 -11 -9 -10 -10 -10 -10 -10 -10 -10 -10 -10 -10 -10 -10 -10 -9
Wind_Speed
9 8 8 5 5 7 7 7 7 8 8 8 11 13 14 14 15 14 16 19 16 14 16 17 17 17 17 16 16 16 17 17 18 19 20 21 22 22 22 22 22 23 23
10 10 9 9 5 7 9 9 8 10 10 10 12 14 15 15 16 16 11 19 16 15 15 16 16 15 14 14 15 17 19 21 22 23 24 25 25 25 25 26 26 26 26
13 13 11 8 6 6 9 11 10 10 10 12 14 15 14 14 14 14 11 9 15 11 13 13 13 14 15 17 17 19 21 22 23 24 25 26 27 26 27 28 28 28 29
17 14 12 11 8 6 7 8 8 9 11 12 13 12 13 13 11 10 9 9 10 11 13 12 15 17 18 19 22 23 23 25 25 25 24 25 27 28 27 27 28 28 29
19 17 15 13 11 8 7 7 7 9 11 12 12 12 13 13 11 8 8 10 10 11 14 17 18 19 21 22 23 23 24 24 25 26 25 26 27 28 27 28 27 25 25
23 19 17 14 12 9 8 7 8 9 10 12 11 10 13 10 9 8 8 8 12 13 15 19 19 18 23 26 25 25 24 23 24 25 25 26 26 26 26 24 24 24 25
24 21 19 15 13 10 8 7 7 9 11 11 10 8 10 10 10 10 8 8 12 16 18 16 18 22 24 23 25 25 24 25 26 27 27 28 28 26 24 26 26 27 29
26 23 20 16 13 11 8 6 6 9 11 11 9 8 3 7 8 6 9 16 11 16 12 18 22 23 22 23 22 23 26 27 28 28 29 29 30 30 29 29 29 30 32
25 23 19 16 14 11 8 6 6 8 10 11 9 4 3 3 13 10 13 11 14 14 20 24 24 23 24 26 23 25 28 29 27 28 32 31 29 29 30 31 32 34 34
25 24 20 17 14 11 8 6 7 8 8 9 11 8 6 9 4 9 7 9 15 19 21 25 26 25 26 22 23 27 27 28 31 32 31 30 31 31 32 33 34 35 37
27 23 20 17 14 11 8 6 7 8 9 9 9 9 10 9 9 10 16 11 20 19 23 20 21 27 24 22 26 25 19 24 27 29 31 31 31 32 33 34 35 36 36
29 24 20 17 14 10 7 7 7 8 9 10 10 11 10 9 9 11 15 22 25 26 21 27 23 25 23 23 26 22 25 28 32 31 30 31 31 33 34 35 35 36 37
29 24 19 17 13 9 6 6 8 9 10 11 11 11 12 13 14 15 17 23 25 29 26 23 22 24 25 25 26 24 33 32 30 31 32 32 33 35 36 36 37 37 37
28 22 21 15 11 7 6 6 8 10 11 12 13 14 14 15 15 17 18 21 27 25 26 22 25 24 24 24 30 31 32 30 32 33 33 34 36 36 36 37 36 37 37
25 22 17 12 9 6 5 7 9 10 11 13 13 15 16 17 18 19 21 21 21 26 29 23 20 18 29 30 31 31 35 33 32 34 34 34 34 36 37 38 38 38 37
22 20 15 10 6 4 5 7 9 10 12 14 15 15 17 18 19 21 21 21 21 26 34 28 29 27 28 30 33 30 34 33 34 34 34 35 38 36 35 36 37 37 38
21 16 12 8 4 4 6 7 9 12 13 14 16 17 19 19 21 21 22 22 23 24 32 35 31 29 31 34 31 35 33 38 35 33 41 35 34 35 36 36 37 38 38
18 13 9 5 3 4 6 8 10 13 14 15 17 18 19 18 22 22 22 21 24 26 29 38 34 35 33 31 34 34 33 32 44 33 31 35 35 36 36 36 37 38 39
15 11 6 3 3 5 7 10 12 14 15 16 18 18 20 21 22 22 22 23 25 27 29 34 40 35 36 33 36 30 40 33 31 34 34 35 35 37 35 35 36 38 38
12 8 4 2 4 6 9 11 13 15 16 17 18 20 22 23 23 22 25 24 25 28 30 33 39 41 36 33 34 36 32 34 37 35 39 39 34 34 34 36 38 37 36
9 5 2 3 6 8 11 13 15 16 18 19 20 21 21 22 26 23 23 26 28 31 35 37 37 37 37 38 32 33 36 36 45 35 36 41 33 43 42 40 37 35 32
6 2 2 4 8 11 13 15 17 19 20 20 21 23 23 22 21 21 23 24 25 30 34 37 41 37 39 35 35 35 42 42 39 41 27 50 41 45 44 41 36 35 36
3 1 3 7 10 13 15 17 19 20 21 20 22 22 22 20 22 23 24 25 27 31 30 34 37 33 36 37 40 42 41 41 43 46 40 45 43 50 43 44 40 37 33
1 2 6 9 12 15 16 18 20 21 20 20 20 21 22 23 23 24 28 31 35 34 30 30 32 33 37 38 37 36 40 44 44 41 32 37 45 45 43 48 42 27 30
2 4 8 11 13 14 19 18 21 22 20 20 18 20 22 24 24 24 29 34 35 36 34 27 29 32 32 31 30 30 36 37 42 43 40 37 35 44 50 49 39 35 39
3 7 11 13 15 15 17 20 21 22 21 19 20 21 20 22 22 26 30 34 38 36 34 35 34 33 28 28 24 25 30 35 41 45 38 32 42 36 33 38 38 42 42
Wind_Direction
179 179 182 171 180 202 216 268 286 290 289 295 304 303 302 299 298 296 288 294 291 283 277 279 284 288 291 291 294 297 297 296 296 294 292 290 289 287 285 283 280 277 274
182 180 190 205 241 275 264 264 269 285 290 298 302 302 303 303 299 292 276 287 287 282 281 284 288 292 293 294 297 301 302 300 298 296 294 289 287 286 284 283 281 278 274
202 200 202 198 243 265 255 261 268 280 294 306 304 299 301 297 296 293 277 257 292 285 283 287 290 294 294 295 298 301 301 298 298 295 293 292 290 288 285 284 282 280 278
203 201 206 211 221 247 255 260 270 286 300 309 313 312 308 306 296 281 278 265 259 284 294 292 294 296 295 297 303 304 302 301 300 296 294 291 290 290 289 286 283 282 280
205 208 211 213 220 237 252 255 270 291 311 323 325 318 309 308 295 272 257 276 280 279 288 298 302 300 300 300 304 304 303 302 299 298 297 294 292 292 291 289 290 288 283
212 213 213 217 230 238 235 248 280 305 320 328 327 316 308 303 286 276 280 286 288 292 290 302 304 310 309 309 310 307 305 302 301 299 297 295 294 295 294 295 292 289 287
213 211 213 214 229 225 224 252 290 312 322 329 336 322 315 319 305 286 275 274 289 296 295 298 297 306 307 307 308 306 305 304 301 300 299 298 298 298 298 294 292 289 286
210 209 213 219 225 212 223 255 293 311 320 334 345 352 330 284 315 297 262 281 282 290 290 293 300 303 301 306 302 300 299 298 298 296 294 296 295 294 295 293 290 287 285
214 205 209 217 216 210 227 258 293 310 323 330 344 353 329 294 291 286 272 280 295 289 298 300 304 304 305 308 302 301 301 300 299 299 302 303 302 298 295 292 289 287 284
200 200 210 212 206 213 233 261 290 309 323 322 333 327 301 278 295 298 256 296 287 291 300 300 301 304 307 302 299 302 302 300 301 306 308 306 302 298 294 291 288 286 284
195 200 205 206 205 215 237 266 290 311 319 318 317 314 315 303 285 269 296 293 288 293 295 299 298 300 306 301 299 300 292 297 305 306 305 303 301 298 295 292 289 286 283
193 192 200 202 204 218 240 272 297 314 318 316 312 312 308 294 270 278 287 294 298 307 295 300 297 313 300 304 295 294 293 301 304 304 303 302 300 297 293 291 288 286 284
192 193 194 197 202 221 246 283 307 316 315 315 312 307 303 298 291 291 292 294 294 299 304 305 297 297 294 286 292 295 292 303 304 302 302 301 298 295 293 291 288 287 284
189 193 194 191 205 225 260 295 311 313 313 311 309 306 303 301 296 294 293 295 301 297 297 298 291 294 285 297 293 299 298 301 300 299 300 299 298 297 295 293 291 290 287
184 185 189 193 209 235 280 302 310 312 312 309 306 306 306 304 300 298 295 294 292 297 299 302 298 279 288 292 298 297 299 305 299 297 298 297 296 296 294 292 291 289 288
186 183 184 196 210 251 291 303 308 309 308 306 305 303 301 300 296 295 296 294 288 285 288 291 297 296 297 296 295 301 299 299 294 296 298 297 295 295 293 291 290 289 286
180 177 184 194 218 273 298 303 305 307 309 305 302 302 301 300 300 299 297 293 289 288 289 294 297 301 299 302 303 303 299 297 303 299 298 297 297 297 294 292 290 288 286
173 178 180 195 244 288 299 303 309 310 306 302 301 299 299 299 297 301 300 293 290 291 293 297 300 303 304 305 304 299 300 298 299 301 300 298 298 295 294 293 291 289 287
172 173 183 216 275 294 302 307 308 305 303 302 301 299 298 299 300 298 293 295 297 297 296 297 301 304 302 303 305 301 306 303 300 297 300 297 299 297 298 297 294 290 288
170 174 192 255 293 303 308 308 311 311 308 304 301 300 300 300 300 296 293 297 299 298 300 299 300 304 306 307 308 307 306 303 304 303 306 305 302 299 299 297 295 292 289
167 171 223 295 305 308 310 315 313 310 307 303 301 302 300 296 296 300 299 303 302 301 301 303 300 302 305 310 310 308 306 305 306 312 302 312 305 305 312 310 307 300 295
161 175 289 306 307 310 316 316 314 313 312 307 302 301 300 301 299 295 298 298 299 301 301 301 302 301 304 306 307 306 304 308 305 309 306 306 312 312 312 315 306 297 294
161 256 307 310 313 314 319 317 317 316 314 310 305 304 301 299 299 301 300 302 297 300 297 299 299 300 300 302 301 308 308 303 300 302 307 305 314 311 315 316 314 305 298
179 308 310 315 317 315 319 317 317 319 315 309 303 301 301 304 302 305 305 303 305 306 307 299 297 297 296 301 304 304 301 298 302 305 303 294 312 313 315 310 318 319 323
263 307 316 317 317 318 316 318 321 320 315 311 304 301 304 303 305 305 306 306 308 305 307 300 293 298 300 299 297 300 299 303 300 303 307 305 306 305 313 316 324 326 323
313 316 318 319 316 314 316 321 319 322 317 313 305 305 305 304 305 307 307 308 306 306 307 309 308 306 302 303 302 297 297 294 294 300 309 302 307 312 313 311 312 319 324
Height
1514 1516 1517 1519 1520 1521 1520 1521 1520 1521 1521 1520 1519 1519 1518 1516 1515 1514 1511 1511 1510 1508 1507 1505 1506 1506 1505 1504 1501 1500 1500 1500 1500 1498 1497 1496 1495 1495 1494 1494 1494 1494 1494
1514 1515 1516 1516 1517 1518 1519 1519 1519 1519 1519 1518 1517 1516 1515 1513 1511 1510 1509 1506 1507 1504 1504 1502 1503 1502 1502 1501 1499 1498 1497 1496 1496 1495 1493 1493 1491 1490 1490 1489 1488 1488 1488
1510 1511 1512 1513 1516 1516 1516 1517 1517 1518 1517 1516 1515 1514 1511 1509 1509 1507 1506 1505 1502 1502 1501 1500 1500 1499 1499 1499 1497 1495 1494 1492 1491 1490 1488 1487 1486 1485 1484 1483 1483 1482 1482
1506 1508 1509 1511 1512 1513 1514 1514 1515 1516 1515 1513 1512 1509 1507 1506 1505 1504 1503 1502 1500 1499 1499 1499 1498 1496 1496 1495 1493 1491 1489 1487 1486 1485 1483 1482 1480 1479 1478 1477 1476 1475 1475
1502 1504 1507 1509 1510 1510 1511 1512 1513 1513 1512 1511 1509 1506 1505 1503 1502 1502 1501 1499 1498 1498 1497 1495 1495 1493 1491 1490 1489 1486 1484 1482 1480 1479 1478 1476 1475 1473 1472 1470 1470 1469 1469
1500 1502 1505 1506 1507 1508 1509 1510 1511 1510 1509 1508 1507 1505 1503 1501 1500 1499 1499 1498 1496 1495 1494 1493 1490 1489 1487 1484 1483 1481 1479 1477 1475 1473 1472 1470 1468 1467 1465 1464 1464 1464 1463
1496 1499 1502 1504 1505 1506 1507 1508 1509 1508 1507 1506 1505 1504 1501 1500 1499 1497 1497 1497 1495 1492 1491 1489 1487 1485 1483 1480 1478 1475 1473 1471 1469 1468 1466 1464 1462 1461 1460 1459 1458 1457 1457
1492 1496 1499 1501 1502 1504 1505 1505 1506 1506 1505 1504 1503 1502 1502 1501 1498 1497 1497 1494 1492 1489 1488 1485 1483 1481 1478 1476 1473 1470 1468 1466 1464 1462 1460 1458 1456 1454 1453 1452 1451 1450 1449
1489 1493 1497 1498 1500 1502 1502 1503 1504 1504 1503 1502 1502 1503 1501 1500 1496 1495 1494 1492 1489 1487 1484 1482 1479 1477 1473 1470 1467 1464 1462 1459 1457 1455 1453 1450 1449 1447 1446 1445 1444 1442 1441
1484 1489 1494 1496 1497 1499 1500 1501 1501 1501 1501 1501 1499 1499 1499 1498 1498 1494 1492 1489 1487 1484 1482 1478 1475 1472 1468 1465 1462 1459 1455 1452 1450 1447 1445 1443 1441 1439 1438 1436 1434 1433 1431
1481 1487 1490 1492 1494 1496 1497 1498 1499 1498 1498 1498 1498 1496 1495 1495 1495 1494 1487 1485 1483 1481 1477 1474 1469 1465 1462 1459 1456 1453 1450 1446 1443 1440 1438 1435 1433 1431 1429 1427 1425 1422 1419
1478 1483 1487 1489 1492 1493 1495 1495 1496 1495 1495 1495 1495 1492 1491 1492 1492 1490 1485 1480 1477 1474 1472 1468 1464 1460 1457 1454 1451 1448 1443 1440 1436 1432 1430 1427 1425 1423 1420 1417 1414 1412 1409
1474 1479 1483 1488 1489 1490 1491 1492 1492 1492 1492 1491 1491 1489 1488 1487 1486 1484 1481 1476 1472 1468 1465 1463 1461 1458 1454 1450 1446 1442 1436 1432 1429 1426 1422 1420 1417 1413 1410 1407 1404 1401 1399
1472 1476 1481 1484 1487 1488 1488 1489 1489 1489 1488 1488 1487 1486 1485 1484 1482 1479 1477 1473 1466 1462 1459 1457 1455 1452 1449 1444 1440 1435 1429 1426 1422 1419 1415 1412 1408 1404 1400 1396 1393 1390 1388
1471 1475 1479 1482 1484 1485 1485 1485 1485 1485 1485 1484 1484 1482 1481 1479 1477 1474 1472 1469 1466 1458 1452 1449 1449 1447 1442 1437 1433 1428 1423 1419 1415 1412 1407 1403 1399 1395 1391 1387 1383 1379 1377
1469 1474 1477 1480 1482 1483 1483 1483 1482 1482 1482 1481 1480 1479 1477 1475 1472 1470 1467 1464 1462 1457 1446 1446 1442 1440 1436 1431 1426 1422 1417 1412 1407 1403 1399 1395 1390 1386 1382 1378 1374 1370 1367
1469 1473 1476 1479 1479 1480 1480 1480 1480 1479 1479 1478 1476 1474 1472 1470 1467 1464 1461 1458 1455 1452 1443 1437 1436 1432 1428 1423 1419 1415 1410 1405 1398 1394 1390 1385 1381 1377 1373 1369 1364 1360 1357
1468 1473 1475 1477 1477 1478 1478 1478 1477 1476 1476 1474 1472 1470 1468 1465 1462 1459 1455 1453 1450 1446 1441 1429 1429 1424 1421 1417 1412 1407 1402 1397 1391 1385 1382 1377 1373 1368 1363 1359 1354 1350 1346
1467 1471 1473 1475 1475 1476 1476 1476 1475 1474 1472 1471 1468 1466 1463 1460 1456 1453 1450 1447 1444 1440 1436 1428 1418 1418 1414 1411 1404 1400 1394 1388 1384 1379 1374 1368 1364 1357 1353 1348 1344 1340 1336
1466 1469 1472 1473 1473 1474 1473 1473 1472 1470 1469 1466 1464 1461 1458 1454 1451 1448 1444 1441 1438 1433 1429 1423 1416 1409 1407 1403 1399 1393 1386 1382 1375 1372 1365 1357 1354 1347 1343 1338 1332 1327 1324
1465 1467 1470 1471 1471 1471 1470 1470 1468 1467 1464 1461 1458 1455 1453 1449 1445 1442 1439 1435 1432 1428 1423 1417 1411 1405 1400 1395 1391 1387 1380 1374 1367 1363 1356 1345 1345 1338 1332 1326 1321 1316 1313
1464 1466 1468 1469 1469 1468 1468 1466 1465 1462 1459 1456 1453 1450 1446 1443 1440 1437 1434 1432 1429 1423 1417 1412 1406 1400 1394 1390 1385 1380 1373 1366 1356 1356 1350 1336 1336 1326 1323 1317 1311 1308 1303
1463 1465 1466 1466 1466 1465 1465 1463 1460 1457 1454 1451 1448 1444 1442 1439 1436 1432 1429 1426 1422 1418 1414 1408 1400 1396 1389 1384 1380 1372 1366 1361 1353 1346 1344 1329 1327 1316 1313 1306 1301 1297 1293
1462 1463 1464 1464 1464 1463 1461 1459 1456 1452 1449 1446 1444 1441 1437 1433 1431 1427 1423 1418 1413 1409 1405 1401 1396 1389 1383 1378 1373 1368 1361 1353 1344 1340 1339 1328 1320 1308 1302 1297 1292 1287 1283
1461 1462 1462 1462 1461 1459 1456 1454 1451 1447 1444 1441 1438 1435 1432 1429 1426 1423 1418 1411 1406 1401 1397 1393 1388 1382 1377 1372 1368 1362 1354 1348 1337 1331 1330 1323 1313 1304 1294 1283 1280 1277 1274
1460 1460 1460 1459 1457 1455 1452 1450 1446 1442 1439 1436 1433 1430 1428 1425 1421 1418 1412 1405 1398 1393 1388 1382 1378 1373 1370 1364 1361 1357 1351 1344 1335 1324 1323 1318 1308 1304 1284 1276 1273 1269 1265